NSZ3850 EKBI-EGKK

Flight info

Callsign NSZ3850
Flight time 1h 24m
Altitude 36000
Route MIKRO DCT OMIMA DCT LONAM DCT BINBO DCT AKOKO N866 BUKUT P7 BARMI
Aircraft A320/M-SDE3FGHIRWY/LB1

Departure

Time 2026-05-07 05:03
Airport Billund Airport (EKBI)

Arrival

Time 2026-05-07 06:28
Airport London Gatwick Airport (EGKK)
Time Latitude Longitude Altitude Speed Heading
2026-05-07 04:25 55.74528 9.14618 218 ft 0 kts 357°
2026-05-07 04:54 55.74526 9.14618 216 ft 2 kts 358°
2026-05-07 04:55 55.74501 9.14620 218 ft 4 kts 357°
2026-05-07 04:55 55.74474 9.14624 222 ft 4 kts 351°
2026-05-07 04:55 55.74450 9.14637 218 ft 4 kts 313°
2026-05-07 04:55 55.74444 9.14653 224 ft 0 kts 267°
2026-05-07 04:59 55.74444 9.14645 225 ft 2 kts 267°
2026-05-07 04:59 55.74442 9.14579 219 ft 8 kts 267°
2026-05-07 04:59 55.74417 9.14477 216 ft 11 kts 209°
2026-05-07 05:00 55.74331 9.14473 219 ft 14 kts 177°
2026-05-07 05:00 55.74261 9.14419 219 ft 13 kts 248°
2026-05-07 05:00 55.74252 9.14245 216 ft 16 kts 267°
2026-05-07 05:00 55.74245 9.14029 216 ft 19 kts 266°
2026-05-07 05:01 55.74237 9.13774 216 ft 22 kts 266°
2026-05-07 05:01 55.74229 9.13541 216 ft 14 kts 265°
2026-05-07 05:01 55.74196 9.13367 219 ft 15 kts 233°
2026-05-07 05:01 55.74101 9.13265 216 ft 18 kts 193°
2026-05-07 05:02 55.74007 9.13267 218 ft 11 kts 167°
2026-05-07 05:02 55.73978 9.13358 216 ft 8 kts 88°
2026-05-07 05:02 55.73978 9.13379 222 ft 0 kts 88°
2026-05-07 05:02 55.73985 9.13588 216 ft 51 kts 87°
2026-05-07 05:03 55.74017 9.14631 216 ft 115 kts 86°
2026-05-07 05:03 55.74071 9.16338 260 ft 157 kts 86°
2026-05-07 05:03 55.74126 9.18233 945 ft 151 kts 87°
2026-05-07 05:03 55.74187 9.20091 1634 ft 153 kts 87°
2026-05-07 05:04 55.74249 9.22080 2004 ft 172 kts 88°
2026-05-07 05:04 55.74313 9.24307 2320 ft 194 kts 88°
2026-05-07 05:04 55.74387 9.26844 2643 ft 216 kts 89°
2026-05-07 05:04 55.74039 9.29548 2982 ft 241 kts 123°
2026-05-07 05:05 55.72700 9.31432 3603 ft 257 kts 162°
2026-05-07 05:05 55.70918 9.31496 4484 ft 263 kts 198°
2026-05-07 05:05 55.69416 9.29685 5418 ft 267 kts 233°
2026-05-07 05:05 55.68616 9.26722 6389 ft 269 kts 253°
2026-05-07 05:06 55.68147 9.23503 7320 ft 271 kts 257°
2026-05-07 05:06 55.67699 9.20233 8227 ft 275 kts 257°
2026-05-07 05:06 55.67246 9.16914 9115 ft 279 kts 257°
2026-05-07 05:06 55.66758 9.13560 9980 ft 284 kts 253°
2026-05-07 05:07 55.66050 9.10196 10469 ft 302 kts 248°
2026-05-07 05:07 55.65156 9.06678 10788 ft 322 kts 245°
2026-05-07 05:07 55.64171 9.03065 11464 ft 328 kts 245°
2026-05-07 05:07 55.63165 8.99415 12234 ft 332 kts 245°
2026-05-07 05:08 55.62163 8.95717 13020 ft 334 kts 246°
2026-05-07 05:08 55.61173 8.91976 13802 ft 337 kts 246°
2026-05-07 05:08 55.60190 8.88201 14503 ft 339 kts 246°
2026-05-07 05:08 55.59206 8.84385 15179 ft 342 kts 246°
2026-05-07 05:09 55.58221 8.80551 15860 ft 344 kts 246°
2026-05-07 05:09 55.57226 8.76689 16535 ft 346 kts 246°
2026-05-07 05:09 55.56222 8.72801 17212 ft 349 kts 246°
2026-05-07 05:09 55.55211 8.68890 17882 ft 351 kts 246°
2026-05-07 05:10 55.54192 8.64951 18516 ft 354 kts 246°
2026-05-07 05:10 55.53161 8.60984 19099 ft 357 kts 246°
2026-05-07 05:10 55.52121 8.56989 19670 ft 359 kts 246°
2026-05-07 05:10 55.51073 8.52971 20264 ft 362 kts 246°
2026-05-07 05:11 55.50010 8.48923 20833 ft 365 kts 246°
2026-05-07 05:11 55.48937 8.44847 21357 ft 368 kts 246°
2026-05-07 05:11 55.47854 8.40730 21857 ft 372 kts 246°
2026-05-07 05:11 55.46765 8.36578 22366 ft 375 kts 246°
2026-05-07 05:12 55.45666 8.32391 22891 ft 378 kts 246°
2026-05-07 05:12 55.44555 8.28171 23393 ft 381 kts 246°
2026-05-07 05:12 55.43431 8.23926 23855 ft 384 kts 246°
2026-05-07 05:12 55.42298 8.19651 24279 ft 387 kts 246°
2026-05-07 05:13 55.41157 8.15347 24702 ft 389 kts 246°
2026-05-07 05:13 55.40019 8.10999 25129 ft 392 kts 247°
2026-05-07 05:13 55.38886 8.06621 25548 ft 394 kts 247°
2026-05-07 05:13 55.37750 8.02214 25961 ft 397 kts 247°
2026-05-07 05:14 55.36604 7.97782 26375 ft 400 kts 247°
2026-05-07 05:14 55.35445 7.93325 26787 ft 402 kts 247°
2026-05-07 05:14 55.34275 7.88838 27184 ft 405 kts 247°
2026-05-07 05:14 55.33114 7.84394 27578 ft 407 kts 247°
2026-05-07 05:15 55.31925 7.79863 27970 ft 410 kts 247°
2026-05-07 05:15 55.30726 7.75309 28363 ft 412 kts 247°
2026-05-07 05:15 55.29516 7.70726 28740 ft 415 kts 247°
2026-05-07 05:15 55.28296 7.66115 29093 ft 418 kts 247°
2026-05-07 05:16 55.27064 7.61468 29457 ft 422 kts 247°
2026-05-07 05:16 55.25823 7.56785 29823 ft 425 kts 247°
2026-05-07 05:16 55.24573 7.52069 30196 ft 428 kts 247°
2026-05-07 05:16 55.23314 7.47327 30516 ft 430 kts 247°
2026-05-07 05:17 55.22044 7.42563 30846 ft 433 kts 247°
2026-05-07 05:17 55.20762 7.37779 31162 ft 435 kts 247°
2026-05-07 05:17 55.19471 7.32972 31489 ft 438 kts 246°
2026-05-07 05:17 55.18175 7.28153 31930 ft 437 kts 246°
2026-05-07 05:18 55.16882 7.23351 32404 ft 436 kts 246°
2026-05-07 05:18 55.15590 7.18563 32875 ft 435 kts 246°
2026-05-07 05:18 55.14296 7.13777 33335 ft 434 kts 246°
2026-05-07 05:18 55.12999 7.09002 33740 ft 435 kts 246°
2026-05-07 05:19 55.11700 7.04222 34137 ft 436 kts 246°
2026-05-07 05:19 55.10401 6.99443 34510 ft 436 kts 246°
2026-05-07 05:19 55.09100 6.94665 34882 ft 435 kts 246°
2026-05-07 05:19 55.07800 6.89906 35266 ft 434 kts 246°
2026-05-07 05:20 55.06499 6.85158 35603 ft 434 kts 246°
2026-05-07 05:20 55.05198 6.80412 35851 ft 433 kts 246°
2026-05-07 05:20 55.03900 6.75673 36006 ft 433 kts 246°
2026-05-07 05:20 55.02602 6.70952 36064 ft 431 kts 245°
2026-05-07 05:21 54.98272 6.57312 36059 ft 430 kts 236°
2026-05-07 05:22 54.94766 6.48851 36063 ft 432 kts 236°
2026-05-07 05:22 54.91256 6.40358 36062 ft 433 kts 236°
2026-05-07 05:23 54.87737 6.31867 36060 ft 433 kts 236°
2026-05-07 05:23 54.84204 6.23402 36063 ft 433 kts 236°
2026-05-07 05:24 54.80658 6.14945 36074 ft 433 kts 236°
2026-05-07 05:24 54.77107 6.06492 36083 ft 434 kts 236°
2026-05-07 05:25 54.73560 5.98057 36082 ft 434 kts 236°
2026-05-07 05:25 54.70002 5.89631 36074 ft 434 kts 236°
2026-05-07 05:26 54.66432 5.81206 36070 ft 435 kts 236°
2026-05-07 05:26 54.62855 5.72793 36069 ft 435 kts 235°
2026-05-07 05:27 54.59262 5.64388 36068 ft 435 kts 235°
2026-05-07 05:27 54.55662 5.55993 36070 ft 435 kts 235°
2026-05-07 05:28 54.52055 5.47616 36073 ft 435 kts 235°
2026-05-07 05:28 54.48470 5.39295 36071 ft 435 kts 235°
2026-05-07 05:29 54.44836 5.30891 36071 ft 436 kts 235°
2026-05-07 05:29 54.41214 5.22544 36064 ft 436 kts 235°
2026-05-07 05:30 54.37588 5.14190 36056 ft 436 kts 235°
2026-05-07 05:30 54.33949 5.05856 36056 ft 437 kts 235°
2026-05-07 05:31 54.30313 4.97595 36059 ft 437 kts 234°
2026-05-07 05:31 54.26646 4.89276 36064 ft 438 kts 234°
2026-05-07 05:32 54.22978 4.80960 36068 ft 438 kts 234°
2026-05-07 05:32 54.19299 4.72644 36074 ft 439 kts 234°
2026-05-07 05:33 54.16231 4.65751 36084 ft 439 kts 234°
2026-05-07 05:33 54.12536 4.57470 36084 ft 439 kts 234°
2026-05-07 05:34 54.08838 4.49195 36085 ft 439 kts 234°
2026-05-07 05:34 54.05129 4.40933 36093 ft 439 kts 234°
2026-05-07 05:35 54.01417 4.32682 36093 ft 439 kts 234°
2026-05-07 05:35 53.97689 4.24450 36096 ft 439 kts 234°
2026-05-07 05:36 53.93963 4.16222 36096 ft 440 kts 234°
2026-05-07 05:36 53.90232 4.07997 36090 ft 440 kts 234°
2026-05-07 05:37 53.86489 3.99782 36087 ft 440 kts 233°
2026-05-07 05:37 53.82401 3.92075 36088 ft 442 kts 221°
2026-05-07 05:38 53.77634 3.85476 36091 ft 443 kts 221°
2026-05-07 05:38 53.72870 3.78885 36092 ft 443 kts 220°
2026-05-07 05:39 53.68098 3.72303 36092 ft 443 kts 220°
2026-05-07 05:39 53.63322 3.65735 36096 ft 442 kts 220°
2026-05-07 05:40 53.58549 3.59188 36092 ft 442 kts 220°
2026-05-07 05:40 53.53774 3.52645 36085 ft 443 kts 220°
2026-05-07 05:41 53.48995 3.46109 36086 ft 443 kts 220°
2026-05-07 05:41 53.44195 3.39595 36087 ft 443 kts 220°
2026-05-07 05:42 53.39251 3.33410 36085 ft 445 kts 210°
2026-05-07 05:42 53.33745 3.28662 36083 ft 445 kts 208°
2026-05-07 05:43 53.28223 3.23966 36070 ft 445 kts 208°
2026-05-07 05:43 53.22700 3.19271 36069 ft 445 kts 207°
2026-05-07 05:44 53.17175 3.14600 36071 ft 445 kts 208°
2026-05-07 05:44 53.11653 3.09944 36074 ft 444 kts 208°
2026-05-07 05:45 53.06140 3.05306 36068 ft 444 kts 207°
2026-05-07 05:45 53.00626 3.00688 35629 ft 444 kts 207°
2026-05-07 05:45 52.97867 2.98379 35082 ft 443 kts 207°
2026-05-07 05:46 52.95158 2.96113 34602 ft 441 kts 207°
2026-05-07 05:46 52.92424 2.93833 34114 ft 439 kts 207°
2026-05-07 05:46 52.89699 2.91563 33564 ft 437 kts 207°
2026-05-07 05:46 52.86995 2.89308 33078 ft 434 kts 207°
2026-05-07 05:47 52.84310 2.87070 32573 ft 430 kts 207°
2026-05-07 05:47 52.81646 2.84857 32075 ft 427 kts 207°
2026-05-07 05:47 52.78997 2.82665 31581 ft 424 kts 207°
2026-05-07 05:47 52.76367 2.80490 31093 ft 421 kts 207°
2026-05-07 05:48 52.73755 2.78332 30615 ft 419 kts 207°
2026-05-07 05:48 52.71159 2.76189 30126 ft 416 kts 207°
2026-05-07 05:48 52.68579 2.74060 29616 ft 412 kts 207°
2026-05-07 05:48 52.66027 2.71960 29160 ft 408 kts 207°
2026-05-07 05:49 52.63501 2.69885 28711 ft 404 kts 207°
2026-05-07 05:49 52.61001 2.67831 28260 ft 400 kts 207°
2026-05-07 05:49 52.58521 2.65793 27841 ft 396 kts 207°
2026-05-07 05:49 52.56065 2.63778 27435 ft 393 kts 207°
2026-05-07 05:50 52.53632 2.61787 27024 ft 390 kts 207°
2026-05-07 05:50 52.51213 2.59813 26626 ft 387 kts 207°
2026-05-07 05:50 52.48812 2.57864 26220 ft 383 kts 207°
2026-05-07 05:50 52.46435 2.55936 25925 ft 378 kts 207°
2026-05-07 05:51 52.44087 2.54023 25842 ft 377 kts 207°
2026-05-07 05:51 52.41736 2.52100 25756 ft 378 kts 208°
2026-05-07 05:51 52.39385 2.50181 25654 ft 378 kts 207°
2026-05-07 05:51 52.37029 2.48270 25546 ft 377 kts 207°
2026-05-07 05:52 52.34679 2.46373 25434 ft 377 kts 207°
2026-05-07 05:52 52.32322 2.44465 25309 ft 378 kts 207°
2026-05-07 05:52 52.29968 2.42556 25201 ft 378 kts 207°
2026-05-07 05:52 52.27613 2.40647 25083 ft 377 kts 207°
2026-05-07 05:53 52.25266 2.38755 24959 ft 375 kts 207°
2026-05-07 05:53 52.22935 2.36881 24858 ft 372 kts 208°
2026-05-07 05:53 52.20619 2.35020 24747 ft 370 kts 207°
2026-05-07 05:53 52.18312 2.33170 24628 ft 369 kts 207°
2026-05-07 05:54 52.16037 2.31352 24524 ft 369 kts 207°
2026-05-07 05:54 52.13736 2.29514 24416 ft 368 kts 208°
2026-05-07 05:54 52.11443 2.27675 24299 ft 367 kts 208°
2026-05-07 05:54 52.09125 2.25816 24192 ft 367 kts 207°
2026-05-07 05:55 52.06868 2.24008 24078 ft 366 kts 207°
2026-05-07 05:55 52.04559 2.22161 23966 ft 365 kts 208°
2026-05-07 05:55 52.02280 2.20347 23855 ft 364 kts 208°
2026-05-07 05:55 52.00006 2.18537 23745 ft 364 kts 207°
2026-05-07 05:56 51.97765 2.16757 23615 ft 363 kts 207°
2026-05-07 05:56 51.95498 2.14961 23508 ft 362 kts 208°
2026-05-07 05:56 51.93235 2.13170 23401 ft 362 kts 207°
2026-05-07 05:56 51.90977 2.11378 23287 ft 361 kts 207°
2026-05-07 05:57 51.88722 2.09590 23183 ft 361 kts 207°
2026-05-07 05:57 51.86472 2.07804 23074 ft 360 kts 208°
2026-05-07 05:57 51.84223 2.06025 22960 ft 359 kts 208°
2026-05-07 05:57 51.81977 2.04255 22839 ft 359 kts 207°
2026-05-07 05:58 51.79734 2.02489 22743 ft 358 kts 207°
2026-05-07 05:58 51.77495 2.00728 22632 ft 357 kts 207°
2026-05-07 05:58 51.75263 1.98980 22528 ft 356 kts 207°
2026-05-07 05:58 51.73034 1.97233 22415 ft 356 kts 207°
2026-05-07 05:59 51.70811 1.95489 22312 ft 355 kts 207°
2026-05-07 05:59 51.68593 1.93744 22207 ft 354 kts 208°
2026-05-07 05:59 51.66420 1.91886 22093 ft 353 kts 214°
2026-05-07 05:59 51.64488 1.89469 21830 ft 353 kts 225°
2026-05-07 06:00 51.62829 1.86569 21273 ft 352 kts 230°
2026-05-07 06:00 51.61226 1.83614 20798 ft 349 kts 230°
2026-05-07 06:00 51.59628 1.80680 20326 ft 348 kts 230°
2026-05-07 06:00 51.58031 1.77762 19854 ft 346 kts 230°
2026-05-07 06:01 51.56437 1.74865 19383 ft 345 kts 229°
2026-05-07 06:01 51.54847 1.71982 18925 ft 344 kts 230°
2026-05-07 06:01 51.53266 1.69115 18452 ft 342 kts 230°
2026-05-07 06:01 51.51691 1.66254 17950 ft 341 kts 229°
2026-05-07 06:02 51.50128 1.63414 17480 ft 338 kts 231°
2026-05-07 06:02 51.48811 1.60337 17022 ft 333 kts 243°
2026-05-07 06:02 51.47922 1.56935 16574 ft 330 kts 251°
2026-05-07 06:02 51.47139 1.53492 16131 ft 328 kts 250°
2026-05-07 06:03 51.46353 1.50069 15687 ft 326 kts 250°
2026-05-07 06:03 51.45567 1.46664 15246 ft 324 kts 250°
2026-05-07 06:03 51.44780 1.43277 14803 ft 323 kts 250°
2026-05-07 06:03 51.43952 1.39992 14374 ft 323 kts 243°
2026-05-07 06:04 51.42698 1.37024 13955 ft 322 kts 229°
2026-05-07 06:04 51.41024 1.34637 13769 ft 315 kts 217°
2026-05-07 06:04 51.39289 1.32594 13558 ft 312 kts 217°
2026-05-07 06:04 51.37547 1.30525 13357 ft 311 kts 217°
2026-05-07 06:05 51.35812 1.28461 13141 ft 310 kts 218°
2026-05-07 06:05 51.34078 1.26404 12941 ft 310 kts 217°
2026-05-07 06:05 51.32351 1.24357 12730 ft 309 kts 217°
2026-05-07 06:05 51.30628 1.22318 12531 ft 308 kts 217°
2026-05-07 06:06 51.28909 1.20287 12315 ft 307 kts 217°
2026-05-07 06:06 51.27195 1.18260 12122 ft 306 kts 217°
2026-05-07 06:06 51.25484 1.16244 11920 ft 305 kts 217°
2026-05-07 06:06 51.23775 1.14232 11717 ft 305 kts 217°
2026-05-07 06:07 51.22071 1.12231 11516 ft 304 kts 217°
2026-05-07 06:07 51.20369 1.10238 11314 ft 303 kts 217°
2026-05-07 06:07 51.18671 1.08255 11122 ft 302 kts 217°
2026-05-07 06:07 51.16976 1.06277 10921 ft 302 kts 217°
2026-05-07 06:08 51.15285 1.04298 10725 ft 301 kts 217°
2026-05-07 06:08 51.13600 1.02325 10528 ft 300 kts 217°
2026-05-07 06:08 51.11916 1.00358 10324 ft 300 kts 217°
2026-05-07 06:08 51.10251 0.98417 10103 ft 294 kts 217°
2026-05-07 06:09 51.08664 0.96425 9946 ft 288 kts 227°
2026-05-07 06:09 51.07554 0.93816 9813 ft 285 kts 249°
2026-05-07 06:09 51.06945 0.90823 9639 ft 284 kts 254°
2026-05-07 06:09 51.06376 0.87814 9495 ft 284 kts 254°
2026-05-07 06:10 51.05980 0.84759 9350 ft 282 kts 265°
2026-05-07 06:10 51.05810 0.81650 9209 ft 282 kts 265°
2026-05-07 06:10 51.05638 0.78546 9065 ft 282 kts 265°
2026-05-07 06:10 51.05463 0.75451 8924 ft 281 kts 265°
2026-05-07 06:11 51.05288 0.72363 8782 ft 280 kts 265°
2026-05-07 06:11 51.05114 0.69280 8643 ft 280 kts 265°
2026-05-07 06:11 51.04941 0.66204 8504 ft 279 kts 265°
2026-05-07 06:11 51.04769 0.63137 8367 ft 279 kts 265°
2026-05-07 06:12 51.04594 0.60072 8231 ft 278 kts 265°
2026-05-07 06:12 51.04417 0.57017 8095 ft 277 kts 265°
2026-05-07 06:12 51.04241 0.53967 7957 ft 277 kts 264°
2026-05-07 06:12 51.04065 0.50930 7828 ft 276 kts 264°
2026-05-07 06:13 51.03887 0.47899 7700 ft 275 kts 264°
2026-05-07 06:13 51.03708 0.44875 7574 ft 274 kts 264°
2026-05-07 06:13 51.03533 0.41860 7446 ft 273 kts 264°
2026-05-07 06:13 51.03358 0.38873 7172 ft 270 kts 264°
2026-05-07 06:14 51.03184 0.35906 6842 ft 270 kts 264°
2026-05-07 06:14 51.03005 0.32931 6451 ft 272 kts 264°
2026-05-07 06:14 51.02826 0.29938 6106 ft 271 kts 263°
2026-05-07 06:14 51.02646 0.26963 5759 ft 270 kts 264°
2026-05-07 06:15 51.02466 0.24004 5414 ft 269 kts 264°
2026-05-07 06:15 51.02287 0.21059 5079 ft 268 kts 264°
2026-05-07 06:15 51.02108 0.18129 4762 ft 267 kts 264°
2026-05-07 06:15 51.01932 0.15211 4462 ft 264 kts 264°
2026-05-07 06:16 51.01815 0.13278 4224 ft 264 kts 264°
2026-05-07 06:16 51.01638 0.10378 3875 ft 264 kts 264°
2026-05-07 06:16 51.01575 0.06535 3635 ft 258 kts 275°
2026-05-07 06:16 51.01675 0.04658 3555 ft 257 kts 275°
2026-05-07 06:17 51.01824 0.01829 3432 ft 257 kts 275°
2026-05-07 06:17 51.01972 -0.00991 3348 ft 256 kts 275°
2026-05-07 06:17 51.02120 -0.03808 3221 ft 255 kts 275°
2026-05-07 06:17 51.02266 -0.06612 3099 ft 255 kts 275°
2026-05-07 06:18 51.02410 -0.09417 2995 ft 255 kts 275°
2026-05-07 06:18 51.02553 -0.12229 3004 ft 256 kts 275°
2026-05-07 06:18 51.02696 -0.15044 3006 ft 256 kts 275°
2026-05-07 06:18 51.02838 -0.17859 3008 ft 256 kts 275°
2026-05-07 06:19 51.02977 -0.20674 3008 ft 256 kts 275°
2026-05-07 06:19 51.03114 -0.23485 3008 ft 256 kts 275°
2026-05-07 06:19 51.03250 -0.26304 3006 ft 256 kts 274°
2026-05-07 06:19 51.03385 -0.29119 3006 ft 256 kts 274°
2026-05-07 06:20 51.03520 -0.31910 3003 ft 256 kts 274°
2026-05-07 06:20 51.03657 -0.34726 3006 ft 256 kts 274°
2026-05-07 06:20 51.03790 -0.37551 3006 ft 256 kts 274°
2026-05-07 06:20 51.03905 -0.40372 3003 ft 256 kts 274°
2026-05-07 06:21 51.04013 -0.43197 3002 ft 256 kts 274°
2026-05-07 06:21 51.04122 -0.46008 3002 ft 251 kts 274°
2026-05-07 06:21 51.04225 -0.48665 2997 ft 236 kts 274°
2026-05-07 06:21 51.04325 -0.51186 2999 ft 221 kts 275°
2026-05-07 06:22 51.04805 -0.53414 2993 ft 215 kts 310°
2026-05-07 06:22 51.07535 -0.54860 3001 ft 216 kts
2026-05-07 06:22 51.08938 -0.54034 3002 ft 217 kts 34°
2026-05-07 06:23 51.09984 -0.52320 3004 ft 218 kts 59°
2026-05-07 06:23 51.10487 -0.50059 3007 ft 215 kts 77°
2026-05-07 06:23 51.10806 -0.47762 3004 ft 211 kts 77°
2026-05-07 06:23 51.11117 -0.45533 2999 ft 201 kts 77°
2026-05-07 06:24 51.11418 -0.43390 3001 ft 197 kts 77°
2026-05-07 06:24 51.11714 -0.41279 2862 ft 195 kts 77°
2026-05-07 06:24 51.12008 -0.39182 2630 ft 193 kts 77°
2026-05-07 06:24 51.12296 -0.37128 2402 ft 187 kts 77°
2026-05-07 06:25 51.12575 -0.35138 2123 ft 181 kts 78°
2026-05-07 06:25 51.12839 -0.33245 1875 ft 169 kts 78°
2026-05-07 06:25 51.13080 -0.31523 1677 ft 149 kts 78°
2026-05-07 06:25 51.13297 -0.29964 1459 ft 140 kts 78°
2026-05-07 06:26 51.13505 -0.28468 1263 ft 137 kts 78°
2026-05-07 06:26 51.13710 -0.26994 1064 ft 136 kts 78°
2026-05-07 06:26 51.13914 -0.25526 870 ft 136 kts 78°
2026-05-07 06:26 51.14119 -0.24064 666 ft 135 kts 77°
2026-05-07 06:27 51.14326 -0.22609 480 ft 135 kts 78°
2026-05-07 06:27 51.14522 -0.21151 306 ft 135 kts 78°
2026-05-07 06:27 51.14721 -0.19713 207 ft 124 kts 76°
2026-05-07 06:27 51.14871 -0.18621 212 ft 76 kts 77°
2026-05-07 06:28 51.14948 -0.18070 209 ft 28 kts 74°
2026-05-07 06:28 51.15037 -0.17835 210 ft 17 kts 53°
2026-05-07 06:28 51.15114 -0.17756 206 ft 13 kts 357°
2026-05-07 06:28 51.15201 -0.17771 215 ft 10 kts 353°
2026-05-07 06:29 51.15261 -0.17721 207 ft 12 kts 65°
2026-05-07 06:29 51.15282 -0.17581 204 ft 12 kts 77°
2026-05-07 06:29 51.15298 -0.17456 208 ft 8 kts 80°
2026-05-07 06:29 51.15305 -0.17353 212 ft 11 kts 86°
2026-05-07 06:30 51.15319 -0.17228 209 ft 12 kts 78°
2026-05-07 06:30 51.15338 -0.17087 206 ft 12 kts 77°
2026-05-07 06:30 51.15355 -0.16962 204 ft 11 kts 78°
2026-05-07 06:30 51.15373 -0.16835 205 ft 10 kts 78°
2026-05-07 06:31 51.15388 -0.16728 206 ft 10 kts 77°
2026-05-07 06:31 51.15403 -0.16622 210 ft 9 kts 77°
2026-05-07 06:31 51.15417 -0.16538 212 ft 7 kts 62°
2026-05-07 06:31 51.15439 -0.16481 211 ft 5 kts 77°
2026-05-07 06:32 51.15443 -0.16443 204 ft 2 kts 79°
2026-05-07 06:32 51.15445 -0.16426 206 ft 1 kts 78°
2026-05-07 06:32 51.15446 -0.16419 206 ft 0 kts 78°